Location: Arcizac
(43.0933°N, 0.0112°E)
Time: 19:13:02
(UTC+00:00)

Cosmos 1190 Rocket - Pass Details

Date: 14 December 2019
Orbit: 756 x 780 km, 74.1° (Epoch: 26 January)

Event Time Altitude Azimuth Distance (km) Brightness Sun altitude
Rises 17:52:11 0° 203° (SSW) 3,204 7.8 -15.2°
Reaches altitude 10° 17:54:32 10° 205° (SSW) 2,281 7.0 -15.6°
Maximum altitude 17:59:42 76° 290° (WNW) 785 4.1 -16.5°
Enters shadow 18:04:51 10° 17° (NNE) 2,273 6.1 -17.4°
